• In Hungary
  • List of Countries
  • For 7 days
  • Water Temperature
  • Satellite Maps
  • Weather Map
  • News
  • Weather Widgets
  • user-avatar
    Login

    Hourly Weather Klimantino

    Today, 21 June, Thursday

    Time Temperature Precipitation Wind Pressure Humidity
    00:00 +14°C° 0 mm 3 mps 744 mmHg 79%
    01:00 +13°C° 0 mm 3 mps 745 mmHg 81%
    02:00 +12°C° 0 mm 3 mps 745 mmHg 83%
    03:00 +12°C° 0 mm 2 mps 745 mmHg 87%
    04:00 +12°C° 0 mm 3 mps 745 mmHg 84%
    05:00 +12°C° 0 mm 3 mps 745 mmHg 82%
    06:00 +13°C° 0 mm 4 mps 745 mmHg 79%
    07:00 +15°C° 0 mm 4 mps 745 mmHg 72%
    08:00 +17°C° 0 mm 5 mps 745 mmHg 66%
    09:00 +20°C° 0 mm 5 mps 746 mmHg 60%
    10:00 +21°C° 0 mm 5 mps 745 mmHg 58%
    11:00 +21°C° 0 mm 6 mps 745 mmHg 57%
    12:00 +22°C° 0 mm 6 mps 745 mmHg 55%
    13:00 +23°C° 0 mm 6 mps 745 mmHg 56%
    14:00 +23°C° 0 mm 6 mps 745 mmHg 56%
    15:00 +24°C° 0 mm 6 mps 745 mmHg 57%
    16:00 +25°C° 0 mm 5 mps 745 mmHg 60%
    17:00 +25°C° 0 mm 4 mps 745 mmHg 64%
    18:00 +25°C° 0 mm 3 mps 745 mmHg 68%
    19:00 +22°C° 0 mm 3 mps 745 mmHg 73%
    20:00 +20°C° 0 mm 3 mps 745 mmHg 78%
    21:00 +19°C° 0 mm 3 mps 745 mmHg 82%
    22:00 +18°C° 0 mm 2 mps 746 mmHg 84%
    23:00 +17°C° 0 mm 2 mps 746 mmHg 86%

    Tomorrow, 22 June, Friday

    Time Temperature Precipitation Wind Pressure Humidity
    00:00 +16°C° 0 mm 2 mps 746 mmHg 89%
    01:00 +16°C° 0 mm 2 mps 746 mmHg 89%
    02:00 +16°C° 0 mm 2 mps 746 mmHg 90%
    03:00 +15°C° 0 mm 1 mps 746 mmHg 91%
    04:00 +16°C° 0 mm 1 mps 746 mmHg 89%
    05:00 +17°C° 0 mm 2 mps 746 mmHg 87%
    06:00 +18°C° 0 mm 2 mps 746 mmHg 85%
    07:00 +19°C° 0 mm 2 mps 746 mmHg 79%
    08:00 +21°C° 0 mm 3 mps 746 mmHg 74%
    09:00 +24°C° 0 mm 3 mps 746 mmHg 69%
    10:00 +25°C° 0 mm 4 mps 746 mmHg 66%
    11:00 +26°C° 0 mm 4 mps 746 mmHg 63%
    12:00 +27°C° 0 mm 5 mps 746 mmHg 59%
    13:00 +27°C° 0 mm 5 mps 746 mmHg 60%
    14:00 +28°C° 0 mm 5 mps 745 mmHg 60%
    15:00 +28°C° 0 mm 5 mps 745 mmHg 60%
    16:00 +28°C° 0 mm 5 mps 745 mmHg 63%
    17:00 +28°C° 0 mm 4 mps 745 mmHg 66%
    18:00 +28°C° 0 mm 4 mps 744 mmHg 69%
    19:00 +26°C° 0 mm 3 mps 744 mmHg 75%
    20:00 +24°C° 0 mm 3 mps 745 mmHg 82%
    21:00 +22°C° 0 mm 3 mps 745 mmHg 88%
    22:00 +21°C° 0 mm 3 mps 745 mmHg 89%
    23:00 +20°C° 0 mm 3 mps 745 mmHg 91%

    Day after tomorrow, 23 June, Saturday

    Time Temperature Precipitation Wind Pressure Humidity
    00:00 +20°C° 0 mm 3 mps 745 mmHg 93%
    01:00 +19°C° 0 mm 3 mps 745 mmHg 93%
    02:00 +19°C° 0 mm 3 mps 745 mmHg 93%
    03:00 +18°C° 0 mm 3 mps 745 mmHg 94%
    04:00 +19°C° 0 mm 3 mps 745 mmHg 91%
    05:00 +19°C° 0 mm 3 mps 745 mmHg 89%
    06:00 +20°C° 0 mm 3 mps 745 mmHg 87%
    07:00 +21°C° 0 mm 3 mps 745 mmHg 81%
    08:00 +24°C° 0 mm 3 mps 745 mmHg 75%
    09:00 +26°C° 0 mm 4 mps 745 mmHg 70%
    10:00 +27°C° 0 mm 4 mps 745 mmHg 65%
    11:00 +28°C° 0 mm 5 mps 745 mmHg 60%
    12:00 +29°C° 0 mm 5 mps 745 mmHg 56%
    13:00 +29°C° 0 mm 5 mps 745 mmHg 55%
    14:00 +29°C° 0 mm 5 mps 745 mmHg 54%
    15:00 +30°C° 0 mm 5 mps 744 mmHg 53%
    16:00 +29°C° 0 mm 5 mps 744 mmHg 57%
    17:00 +29°C° 0 mm 4 mps 744 mmHg 62%
    18:00 +29°C° 0 mm 3 mps 744 mmHg 66%
    19:00 +27°C° 0 mm 3 mps 744 mmHg 70%
    20:00 +25°C° 0 mm 3 mps 744 mmHg 75%
    21:00 +23°C° 0 mm 4 mps 744 mmHg 80%
    22:00 +22°C° 0 mm 4 mps 744 mmHg 80%
    23:00 +22°C° 0 mm 4 mps 744 mmHg 80%

    24 June, Sunday

    Time Temperature Precipitation Wind Pressure Humidity
    00:00 +21°C° 0 mm 4 mps 743 mmHg 81%
    01:00 +21°C° 0 mm 5 mps 743 mmHg 80%
    02:00 +21°C° 0 mm 5 mps 743 mmHg 79%
    03:00 +20°C° 0 mm 5 mps 743 mmHg 79%
    04:00 +20°C° 0 mm 5 mps 743 mmHg 77%
    05:00 +20°C° 0 mm 5 mps 743 mmHg 75%
    06:00 +20°C° 0 mm 5 mps 743 mmHg 74%
    07:00 +21°C° 0 mm 6 mps 743 mmHg 70%
    08:00 +23°C° 0 mm 6 mps 743 mmHg 66%
    09:00 +24°C° 0 mm 6 mps 743 mmHg 62%
    10:00 +26°C° 0 mm 6 mps 743 mmHg 60%
    11:00 +26°C° 0 mm 6 mps 743 mmHg 59%
    12:00 +27°C° 0 mm 6 mps 743 mmHg 57%
    13:00 +28°C° 0.2 mm 6 mps 743 mmHg 57%
    14:00 +28°C° 0.2 mm 6 mps 743 mmHg 56%
    15:00 +28°C° 0.2 mm 7 mps 744 mmHg 56%
    16:00 +27°C° 0.4 mm 6 mps 744 mmHg 64%
    17:00 +25°C° 0.4 mm 5 mps 744 mmHg 72%
    18:00 +23°C° 0.4 mm 4 mps 745 mmHg 80%
    19:00 +22°C° 0.2 mm 4 mps 745 mmHg 84%
    20:00 +20°C° 0.2 mm 3 mps 746 mmHg 87%
    21:00 +19°C° 0.2 mm 3 mps 746 mmHg 90%
    22:00 +17°C° 0.1 mm 3 mps 747 mmHg 91%
    23:00 +16°C° 0.1 mm 3 mps 747 mmHg 92%

    25 June, Monday

    Time Temperature Precipitation Wind Pressure Humidity
    00:00 +13°C° 0.1 mm 3 mps 747 mmHg 93%
    01:00 +14°C° 0 mm 2 mps 748 mmHg 93%
    02:00 +13°C° 0 mm 2 mps 748 mmHg 92%
    03:00 +12°C° 0 mm 2 mps 749 mmHg 92%
    04:00 +13°C° 0 mm 2 mps 749 mmHg 91%
    05:00 +14°C° 0 mm 2 mps 749 mmHg 89%
    06:00 +14°C° 0 mm 1 mps 750 mmHg 87%
    07:00 +16°C° 0 mm 1 mps 750 mmHg 80%
    08:00 +19°C° 0 mm 1 mps 750 mmHg 72%
    09:00 +20°C° 0 mm 1 mps 750 mmHg 65%
    10:00 +21°C° 0 mm 1 mps 750 mmHg 62%
    11:00 +22°C° 0 mm 1 mps 750 mmHg 58%
    12:00 +23°C° 0 mm 1 mps 750 mmHg 55%
    13:00 +23°C° 0 mm 1 mps 750 mmHg 54%
    14:00 +23°C° 0 mm 1 mps 750 mmHg 54%
    15:00 +24°C° 0 mm 1 mps 751 mmHg 53%
    16:00 +24°C° 0 mm 1 mps 750 mmHg 53%
    17:00 +24°C° 0 mm 1 mps 750 mmHg 54%
    18:00 +24°C° 0 mm 1 mps 750 mmHg 54%
    19:00 +22°C° 0 mm 1 mps 750 mmHg 61%
    20:00 +20°C° 0 mm 1 mps 751 mmHg 68%
    21:00 +18°C° 0 mm 1 mps 751 mmHg 75%
    22:00 +16°C° 0 mm 1 mps 751 mmHg 78%
    23:00 +16°C° 0 mm 1 mps 751 mmHg 81%

    26 June, Tuesday

    Time Temperature Precipitation Wind Pressure Humidity
    00:00 +15°C° 0 mm 1 mps 751 mmHg 83%
    01:00 +14°C° 0 mm 0 mps 751 mmHg 84%
    02:00 +13°C° 0 mm 0 mps 752 mmHg 85%
    03:00 +13°C° 0 mm 0 mps 752 mmHg 87%
    04:00 +14°C° 0 mm 0 mps 752 mmHg 84%
    05:00 +15°C° 0 mm 0 mps 752 mmHg 82%
    06:00 +18°C° 0 mm 1 mps 752 mmHg 80%
    07:00 +20°C° 0 mm 1 mps 752 mmHg 74%
    08:00 +21°C° 0 mm 1 mps 752 mmHg 68%
    09:00 +23°C° 0 mm 1 mps 753 mmHg 62%
    10:00 +24°C° 0 mm 2 mps 752 mmHg 57%
    11:00 +25°C° 0 mm 2 mps 752 mmHg 52%
    12:00 +27°C° 0 mm 2 mps 752 mmHg 47%
    13:00 +27°C° 0 mm 2 mps 752 mmHg 46%
    14:00 +28°C° 0 mm 2 mps 752 mmHg 45%
    15:00 +28°C° 0 mm 2 mps 752 mmHg 43%
    16:00 +28°C° 0 mm 2 mps 752 mmHg 47%
    17:00 +28°C° 0 mm 2 mps 752 mmHg 50%
    18:00 +28°C° 0 mm 2 mps 752 mmHg 54%
    19:00 +26°C° 0.2 mm 2 mps 751 mmHg 60%
    20:00 +24°C° 0.2 mm 2 mps 751 mmHg 67%
    21:00 +20°C° 0.2 mm 2 mps 751 mmHg 73%
    22:00 +20°C° 0.1 mm 2 mps 751 mmHg 78%
    23:00 +19°C° 0.1 mm 2 mps 751 mmHg 82%
    Show more